Погода в Троицком

Россия / Костромская область     58°12′27″N   45°45′12″E
темп.,
°C
ветер,
м/с
пор.,
м/с
влажн.,
%
обл.,
%
осадки,
мм/ч
давл.,
гПа
погр.,
м
17 мая, пн
пн1700:00+14зюз23842 0.0 101342
03:00+13юз24890 0.0 101564
06:00+16з25792 0.0 1016223
09:00+20з365632 0.0 1016944
12:00+23з354549 0.0 10171646
15:00+24зсз344367 0.0 10171779
18:00+22с22597 0.0 101781
21:00+16всв26839 0.0 1018110
18 мая, вт
вт1800:00+14в278861 0.0 1019127
03:00+13в2789100 0.0 1019141
06:00+15в398451 0.3 1020245
09:00+21вюв465883 0.3 1020712
12:00+25вюв454994 0.0 10191173
15:00+26вюв454661 0.0 10191426
18:00+24юв375942 0.0 1018540
21:00+18вюв3127752 0.0 1019304
19 мая, ср
ср1900:00+16вюв4137394 0.0 1019340
03:00+13вюв3108215 0.0 1019218
06:00+17вюв397111 0.0 1019268
09:00+22юв475174 0.0 1019702
12:00+25юв574115 0.0 10191300
15:00+26юв56371 0.0 10181404
18:00+23юв48510 0.0 1018653
21:00+16вюв312740 0.0 1018264
20 мая, чт
чт2000:00+14юв312840 0.0 1018244
03:00+13юв311840 0.0 1018235
06:00+16юв39730 0.0 1018268
09:00+22юв58495 0.0 1017872
12:00+25ююв69354 0.0 10161665
15:00+25ююв59355 0.0 10161755
18:00+22юв5104595 0.0 1015944
21:00+17юв4136282 0.0 1015401
21 мая, пт
пт2100:00+14юв3127362 0.0 1015314
03:00+13юв310805 0.0 1015212
06:00+16ююв377332 0.0 1015245
09:00+21ююв476096 0.0 1014865
12:00+23ююв594787 0.1 10132002
15:00+23ю4846100 0.1 10112156
18:00+18ю61274100 1.4 1011965
21:00+15ю31190100 3.1 1011396